DW9996 Weather Reports


Display with metric or nautical units.
time (UTC)temp
F
wind
direction
speed
MPH
gust
MPH
rain 1hr
in
rain 24hr
in
rain mn
in
humidity
%
barometer
mb
20260505124546 31 337 2.0 4.0 0.00 0.00 0.00 70 1019.4
20260505123044 31 360 4.0 8.0 0.00 0.00 0.00 69 1019.2
20260505121540 32 62 4.0 9.0 0.00 0.00 0.00 67 1019.0
20260505120041 33 346 4.0 8.0 0.00 0.00 0.00 66 1018.6
20260505114537 33 334 4.0 11.0 0.00 0.00 0.00 67 1018.4
20260505113033 33 340 3.0 7.0 0.00 0.00 0.00 68 1018.4
20260505111530 32 319 4.0 6.0 0.00 0.00 0.00 69 1018.4
20260505101532 32 311 2.0 4.0 0.00 0.00 0.00 67 1018.2
20260505100023 34 311 1.0 5.0 0.00 0.00 0.00 66 1018.1
20260505094520 34 298 1.0 2.0 0.00 0.00 0.00 66 1017.9
20260505093031 33 304 2.0 4.0 0.00 0.00 0.00 67 1017.9
20260505091523 31 296 1.0 3.0 0.00 0.00 0.00 68 1017.9
20260505090015 31 296 0.0 1.0 0.00 0.00 0.00 67 1017.8
20260505084513 32 296 0.0 2.0 0.00 0.00 0.00 65 1017.7
20260505083013 32 293 1.0 5.0 0.00 0.00 0.00 65 1017.7
20260505081508 33 313 1.0 3.0 0.00 0.00 0.00 64 1017.5
20260505080007 33 313 1.0 3.0 0.00 0.00 0.00 64 1017.3
20260505074503 33 313 0.0 4.0 0.00 0.00 0.00 64 1017.4
20260505073001 33 299 0.0 2.0 0.00 0.00 0.00 63 1017.2
20260505071605 34 298 1.0 3.0 0.00 0.00 0.00 60 1017.2
20260505070058 36 318 0.0 2.0 0.00 0.00 0.00 60 1017.1
20260505064554 35 323 1.0 4.0 0.00 0.00 0.00 61 1017.3
20260505063114 34 298 0.0 4.0 0.00 0.00 0.00 61 1017.0
20260505061617 34 298 1.0 3.0 0.00 0.00 0.00 62 1017.0
20260505060055 34 298 0.0 3.0 0.00 0.00 0.00 61 1016.8
20260505054546 34 340 0.0 2.0 0.00 0.00 0.00 61 1016.9
20260505053044 34 340 0.0 3.0 0.00 0.00 0.00 60 1016.6
20260505051601 34 340 0.0 1.0 0.00 0.00 0.00 56 1016.4
20260505041528 40 340 2.0 5.0 0.00 0.00 0.00 50 1016.0
20260505040025 41 28 3.0 8.0 0.00 0.00 0.00 49 1015.6
20260505034518 42 28 3.0 8.0 0.00 0.00 0.00 47 1015.4
20260505033015 43 43 3.0 12.0 0.00 0.00 0.00 46 1015.4
20260505031515 44 360 7.0 12.0 0.00 0.00 0.00 45 1015.3
20260505030008 44 32 3.0 11.0 0.00 0.00 0.00 44 1015.0
20260505024509 45 5 7.0 14.0 0.00 0.00 0.00 43 1014.8
20260505023003 46 55 8.0 15.0 0.00 0.00 0.00 41 1014.6
20260505021501 47 15 9.0 18.0 0.00 0.00 0.00 38 1014.3
20260505020106 49 53 11.0 20.0 0.00 0.00 0.00 36 1014.0
20260505014557 50 343 10.0 18.0 0.00 0.00 0.00 34 1013.7
20260505013103 51 51 8.0 20.0 0.00 0.00 0.00 33 1013.5
20260505011554 51 347 11.0 24.0 0.00 0.00 0.00 30 1013.2
20260505010109 52 341 11.0 20.0 0.00 0.00 0.00 29 1013.1
20260505004551 53 351 13.0 21.0 0.00 0.00 0.00 28 1013.1
20260505003055 53 42 15.0 25.0 0.00 0.00 0.00 28 1012.9
20260505001549 53 331 12.0 24.0 0.00 0.00 0.00 26 1012.8
20260505000049 54 360 15.0 26.0 0.00 0.00 0.00 25 1012.7
20260504234547 54 306 13.0 30.0 0.00 0.00 0.00 24 1012.6
20260504233102 55 342 13.0 25.0 0.00 0.00 0.00 24 1012.5
20260504231548 54 21 18.0 27.0 0.00 0.00 0.00 25 1012.4
20260504230053 55 343 16.0 27.0 0.00 0.00 0.00 25 1012.2
20260504224542 55 300 15.0 26.0 0.00 0.00 0.00 26 1012.2
20260504223041 54 355 12.0 23.0 0.00 0.00 0.00 25 1012.1
20260504221540 54 336 11.0 21.0 0.00 0.00 0.00 30 1012.1
20260504220039 54 297 9.0 19.0 0.00 0.00 0.00 29 1012.3
20260504214539 52 326 10.0 21.0 0.00 0.00 0.00 31 1012.4
20260504213038 52 312 13.0 25.0 0.00 0.00 0.00 32 1012.5
20260504211539 54 340 13.0 21.0 0.00 0.00 0.00 30 1012.5
20260504210042 54 335 13.0 20.0 0.00 0.00 0.00 31 1012.5
20260504204541 53 307 14.0 22.0 0.00 0.00 0.00 33 1012.5
20260504203051 54 42 11.0 22.0 0.00 0.00 0.00 32 1012.4
20260504201536 52 281 12.0 25.0 0.00 0.00 0.00 34 1012.5
20260504200032 53 19 16.0 25.0 0.00 0.00 0.00 34 1012.4
20260504194534 53 333 11.0 24.0 0.00 0.00 0.00 35 1012.3
20260504193030 54 315 10.0 20.0 0.00 0.00 0.00 35 1012.2
20260504191529 53 303 10.0 23.0 0.00 0.00 0.00 35 1012.2
20260504190029 53 9 14.0 25.0 0.00 0.00 0.00 35 1012.2
20260504184533 53 325 15.0 22.0 0.00 0.00 0.00 35 1012.1
20260504183032 53 347 17.0 25.0 0.00 0.00 0.00 36 1012.0
20260504181526 53 343 13.0 22.0 0.00 0.00 0.00 36 1012.0
20260504180025 53 307 10.0 29.0 0.00 0.00 0.00 37 1012.0
20260504174525 53 315 12.0 21.0 0.00 0.00 0.00 38 1012.0
20260504173024 53 349 10.0 21.0 0.00 0.00 0.00 38 1011.8
20260504171523 52 342 9.0 19.0 0.00 0.00 0.00 41 1011.9